| time (UTC) | temp F | wind direction | speed MPH | gust MPH | rain 1hr in | rain 24hr in | rain mn in | humidity % | barometer mb |
| 20260901095248 | 66 | 29 | 13.0 | 16.0 | 0.00 | 0.62 | 0.62 | 99 | 1023.0 |
| 20260901094742 | 66 | 29 | 13.0 | 16.0 | 0.00 | 0.62 | 0.62 | 99 | 1023.2 |
| 20260901094237 | 66 | 29 | 13.0 | 16.0 | 0.00 | 0.62 | 0.62 | 99 | 1023.2 |
| 20260901093732 | 66 | 29 | 13.0 | 16.0 | 0.00 | 0.62 | 0.62 | 99 | 1023.0 |
| 20260901093231 | 66 | 29 | 13.0 | 16.0 | 0.00 | 0.62 | 0.62 | 99 | 1023.2 |
| 20260901092727 | 66 | 29 | 13.0 | 16.0 | 0.00 | 0.62 | 0.62 | 99 | 1023.0 |
| 20260901092223 | 66 | 29 | 13.0 | 16.0 | 0.00 | 0.62 | 0.62 | 99 | 1023.3 |
| 20260901091718 | 66 | 29 | 13.0 | 16.0 | 0.00 | 0.62 | 0.62 | 99 | 1023.3 |
| 20260901091214 | 66 | 29 | 13.0 | 16.0 | 0.00 | 0.62 | 0.62 | 99 | 1023.3 |
| 20260901090708 | 66 | 29 | 13.0 | 16.0 | 0.00 | 0.62 | 0.62 | 99 | 1023.1 |
| 20260901090203 | 66 | 29 | 13.0 | 16.0 | 0.00 | 0.62 | 0.62 | 99 | 1023.0 |
| 20260901085659 | 66 | 29 | 13.0 | 16.0 | 0.00 | 0.62 | 0.62 | 99 | 1023.2 |
| 20260901085155 | 66 | 29 | 13.0 | 16.0 | 0.00 | 0.62 | 0.62 | 99 | 1023.2 |
| 20260901084651 | 66 | 29 | 13.0 | 16.0 | 0.00 | 0.62 | 0.62 | 99 | 1023.3 |
| 20260901084147 | 66 | 29 | 13.0 | 16.0 | 0.02 | 0.62 | 0.62 | 99 | 1023.3 |
| 20260901083646 | 66 | 29 | 13.0 | 16.0 | 0.00 | 0.62 | 0.62 | 99 | 1023.6 |
| 20260901083146 | 66 | 29 | 13.0 | 16.0 | 0.02 | 0.62 | 0.62 | 99 | 1023.5 |
| 20260901082639 | 66 | 29 | 13.0 | 16.0 | 0.02 | 0.62 | 0.62 | 99 | 1023.6 |
| 20260901082135 | 66 | 29 | 13.0 | 16.0 | 0.02 | 0.61 | 0.61 | 99 | 1023.6 |
| 20260901081630 | 66 | 29 | 13.0 | 16.0 | 0.05 | 0.61 | 0.61 | 99 | 1023.6 |
| 20260901081125 | 66 | 29 | 13.0 | 16.0 | 0.02 | 0.61 | 0.61 | 99 | 1023.7 |
| 20260901080620 | 66 | 29 | 13.0 | 16.0 | 0.00 | 0.61 | 0.61 | 99 | 1023.9 |
| 20260901080119 | 66 | 29 | 13.0 | 16.0 | 0.02 | 0.61 | 0.61 | 99 | 1023.7 |
| 20260901075614 | 66 | 29 | 13.0 | 16.0 | 0.00 | 0.60 | 0.60 | 99 | 1023.9 |
| 20260901075114 | 66 | 29 | 13.0 | 16.0 | 0.02 | 0.60 | 0.60 | 99 | 1023.8 |
| 20260901074613 | 66 | 29 | 13.0 | 16.0 | 0.02 | 0.60 | 0.60 | 99 | 1023.7 |
| 20260901074113 | 66 | 29 | 13.0 | 16.0 | 0.00 | 0.60 | 0.60 | 99 | 1023.6 |
| 20260901073610 | 66 | 29 | 13.0 | 16.0 | 0.00 | 0.60 | 0.60 | 99 | 1023.9 |
| 20260901073105 | 66 | 29 | 13.0 | 16.0 | 0.00 | 0.60 | 0.60 | 99 | 1023.8 |
| 20260901072600 | 66 | 29 | 13.0 | 16.0 | 0.02 | 0.60 | 0.60 | 99 | 1023.9 |
| 20260901072055 | 66 | 29 | 13.0 | 16.0 | 0.02 | 0.60 | 0.60 | 99 | 1024.0 |
| 20260901071555 | 67 | 29 | 13.0 | 16.0 | 0.02 | 0.59 | 0.59 | 99 | 1023.9 |
| 20260901071054 | 67 | 29 | 13.0 | 16.0 | 0.05 | 0.59 | 0.59 | 99 | 1023.9 |
| 20260901070549 | 67 | 29 | 13.0 | 16.0 | 0.05 | 0.59 | 0.59 | 99 | 1023.9 |
| 20260901070044 | 66 | 29 | 13.0 | 16.0 | 0.05 | 0.59 | 0.59 | 99 | 1024.0 |
| 20260901065538 | 66 | 29 | 13.0 | 16.0 | 0.05 | 0.58 | 0.58 | 99 | 1024.0 |
| 20260901065033 | 66 | 29 | 13.0 | 16.0 | 0.12 | 0.58 | 0.58 | 99 | 1023.9 |
| 20260901064530 | 66 | 29 | 13.0 | 16.0 | 0.31 | 0.57 | 0.57 | 99 | 1023.9 |
| 20260901064026 | 66 | 29 | 13.0 | 16.0 | 0.47 | 0.56 | 0.56 | 99 | 1024.0 |
| 20260901063518 | 66 | 29 | 13.0 | 16.0 | 0.71 | 0.52 | 0.52 | 99 | 1023.9 |
| 20260901063014 | 66 | 29 | 13.0 | 16.0 | 0.97 | 0.47 | 0.47 | 99 | 1023.9 |
| 20260901062509 | 67 | 29 | 13.0 | 16.0 | 0.83 | 0.38 | 0.38 | 99 | 1024.2 |
| 20260901062005 | 67 | 29 | 13.0 | 16.0 | 0.50 | 0.29 | 0.29 | 99 | 1024.4 |
| 20260901061501 | 66 | 29 | 13.0 | 16.0 | 0.45 | 0.24 | 0.24 | 99 | 1024.4 |
| 20260901061000 | 66 | 29 | 13.0 | 16.0 | 0.40 | 0.21 | 0.21 | 99 | 1024.3 |
| 20260901060455 | 67 | 29 | 13.0 | 16.0 | 0.33 | 0.17 | 0.17 | 99 | 1024.4 |
| 20260901055949 | 67 | 29 | 13.0 | 16.0 | 0.35 | 0.14 | 0.14 | 99 | 1024.4 |
| 20260901055446 | 67 | 29 | 13.0 | 16.0 | 0.26 | 0.11 | 0.11 | 99 | 1024.3 |
| 20260901054942 | 67 | 29 | 13.0 | 16.0 | 0.14 | 0.08 | 0.08 | 99 | 1024.5 |
| 20260901054439 | 67 | 29 | 13.0 | 16.0 | 0.12 | 0.06 | 0.06 | 99 | 1024.3 |
| 20260901053935 | 67 | 29 | 13.0 | 16.0 | 0.09 | 0.05 | 0.05 | 99 | 1024.5 |
| 20260901053430 | 67 | 29 | 13.0 | 16.0 | 0.02 | 0.04 | 0.04 | 99 | 1024.5 |
| 20260901052925 | 67 | 29 | 13.0 | 16.0 | 0.02 | 0.04 | 0.04 | 99 | 1024.6 |
| 20260901052421 | 67 | 29 | 13.0 | 16.0 | 0.05 | 0.03 | 0.03 | 99 | 1024.6 |
| 20260901051919 | 67 | 29 | 13.0 | 16.0 | 0.09 | 0.03 | 0.03 | 99 | 1024.5 |
| 20260901051415 | 67 | 29 | 13.0 | 16.0 | 0.09 | 0.02 | 0.02 | 99 | 1024.4 |
| 20260901050909 | 67 | 29 | 13.0 | 16.0 | 0.02 | 0.01 | 0.01 | 99 | 1024.6 |
| 20260901050405 | 67 | 29 | 13.0 | 16.0 | 0.00 | 0.00 | 0.00 | 99 | 1024.5 |
| 20260901045900 | 67 | 29 | 13.0 | 16.0 | 0.02 | 0.00 | 0.00 | 99 | 1024.7 |
| 20260901045359 | 67 | 29 | 13.0 | 16.0 | 0.02 | 0.00 | 0.00 | 99 | 1024.6 |
| 20260901044855 | 67 | 29 | 13.0 | 16.0 | 0.00 | 0.00 | 0.00 | 99 | 1024.7 |
| 20260901044351 | 67 | 29 | 13.0 | 16.0 | 0.00 | 0.00 | 0.00 | 99 | 1024.5 |
| 20260901043847 | 67 | 29 | 13.0 | 16.0 | 0.00 | 0.00 | 0.00 | 99 | 1024.9 |
| 20260901043343 | 67 | 29 | 13.0 | 16.0 | 0.00 | 0.00 | 0.00 | 99 | 1024.8 |
| 20260901042842 | 67 | 29 | 13.0 | 16.0 | 0.00 | 0.00 | 0.00 | 99 | 1024.9 |
| 20260901042337 | 67 | 29 | 13.0 | 16.0 | 0.00 | 0.00 | 0.00 | 99 | 1024.8 |
| 20260901041832 | 67 | 29 | 13.0 | 16.0 | 0.00 | 0.00 | 0.00 | 99 | 1024.8 |
| 20260901041328 | 67 | 29 | 13.0 | 16.0 | 0.00 | 0.00 | 0.00 | 99 | 1024.8 |
| 20260901040828 | 67 | 29 | 13.0 | 16.0 | 0.00 | 0.00 | 0.00 | 99 | 1024.8 |
| 20260901040327 | 67 | 29 | 13.0 | 16.0 | 0.00 | 0.00 | 0.00 | 99 | 1024.9 |
| 20260901035826 | 67 | 29 | 13.0 | 16.0 | 0.00 | 0.00 | 0.00 | 99 | 1025.0 |
| 20260901035325 | 67 | 29 | 13.0 | 16.0 | 0.00 | 0.00 | 0.00 | 99 | 1024.8 |
| 20260901034824 | 67 | 29 | 13.0 | 16.0 | 0.02 | 0.00 | 0.00 | 99 | 1024.7 |
| 20260901034319 | 67 | 29 | 13.0 | 16.0 | 0.02 | 0.00 | 0.00 | 99 | 1024.7 |
| 20260901033819 | 67 | 29 | 13.0 | 16.0 | 0.00 | 0.00 | 0.00 | 99 | 1024.8 |
| 20260901033318 | 67 | 29 | 13.0 | 16.0 | 0.00 | 0.00 | 0.00 | 99 | 1024.7 |
| 20260901032817 | 67 | 29 | 13.0 | 16.0 | 0.00 | 0.00 | 0.00 | 99 | 1024.9 |
| 20260901032316 | 67 | 29 | 13.0 | 16.0 | 0.00 | 0.00 | 0.00 | 99 | 1025.1 |
| 20260901031812 | 67 | 29 | 13.0 | 16.0 | 0.00 | 0.00 | 0.00 | 99 | 1025.2 |
| 20260901031308 | 67 | 29 | 13.0 | 16.0 | 0.00 | 0.00 | 0.00 | 99 | 1025.2 |
| 20260901030807 | 67 | 29 | 13.0 | 16.0 | 0.00 | 0.00 | 0.00 | 99 | 1025.2 |
| 20260901030303 | 67 | 29 | 13.0 | 16.0 | 0.00 | 0.00 | 0.00 | 99 | 1025.4 |
| 20260901025802 | 67 | 29 | 13.0 | 16.0 | 0.00 | 0.00 | 0.00 | 99 | 1025.3 |
| 20260901025257 | 67 | 29 | 13.0 | 16.0 | 0.00 | 0.00 | 0.00 | 99 | 1025.4 |
| 20260901024752 | 67 | 29 | 13.0 | 16.0 | 0.00 | 0.00 | 0.00 | 98 | 1025.3 |
| 20260901024251 | 67 | 29 | 13.0 | 16.0 | 0.00 | 0.00 | 0.00 | 98 | 1025.5 |
| 20260901023748 | 67 | 29 | 13.0 | 16.0 | 0.00 | 0.00 | 0.00 | 98 | 1025.4 |
| 20260901023244 | 67 | 29 | 13.0 | 16.0 | 0.00 | 0.00 | 0.00 | 98 | 1025.5 |
| 20260901022739 | 67 | 29 | 13.0 | 16.0 | 0.00 | 0.00 | 0.00 | 98 | 1025.6 |
| 20260901022235 | 67 | 29 | 13.0 | 16.0 | 0.00 | 0.00 | 0.00 | 98 | 1025.4 |
| 20260901021730 | 67 | 29 | 13.0 | 16.0 | 0.00 | 0.00 | 0.00 | 98 | 1025.3 |
| 20260901021225 | 67 | 29 | 13.0 | 16.0 | 0.00 | 0.00 | 0.00 | 98 | 1025.6 |
| 20260901020721 | 67 | 29 | 13.0 | 16.0 | 0.00 | 0.00 | 0.00 | 98 | 1025.5 |
| 20260901020216 | 67 | 29 | 13.0 | 16.0 | 0.00 | 0.00 | 0.00 | 98 | 1025.5 |
| 20260901015711 | 67 | 29 | 13.0 | 16.0 | 0.00 | 0.00 | 0.00 | 98 | 1025.4 |
| 20260901015207 | 67 | 29 | 13.0 | 16.0 | 0.00 | 0.00 | 0.00 | 98 | 1025.3 |
| 20260901014701 | 67 | 29 | 13.0 | 16.0 | 0.00 | 0.00 | 0.00 | 98 | 1025.4 |
| 20260901014157 | 67 | 29 | 13.0 | 16.0 | 0.00 | 0.00 | 0.00 | 98 | 1025.5 |
| 20260901013653 | 67 | 29 | 13.0 | 16.0 | 0.00 | 0.00 | 0.00 | 98 | 1025.4 |
| 20260901013148 | 67 | 29 | 13.0 | 16.0 | 0.00 | 0.00 | 0.00 | 98 | 1025.4 |
| 20260901012648 | 67 | 29 | 13.0 | 16.0 | 0.00 | 0.00 | 0.00 | 98 | 1025.5 |
| 20260901012143 | 67 | 29 | 13.0 | 16.0 | 0.00 | 0.00 | 0.00 | 98 | 1025.3 |
| 20260901011639 | 67 | 29 | 13.0 | 16.0 | 0.00 | 0.00 | 0.00 | 98 | 1025.6 |
| 20260901011138 | 67 | 29 | 13.0 | 16.0 | 0.00 | 0.00 | 0.00 | 98 | 1025.6 |
| 20260901010634 | 67 | 29 | 13.0 | 16.0 | 0.00 | 0.00 | 0.00 | 98 | 1025.5 |
| 20260901010133 | 67 | 29 | 13.0 | 16.0 | 0.00 | 0.00 | 0.00 | 98 | 1025.7 |
| 20260901005632 | 67 | 29 | 13.0 | 16.0 | 0.00 | 0.00 | 0.00 | 98 | 1025.5 |
| 20260901005127 | 67 | 29 | 13.0 | 16.0 | 0.00 | 0.00 | 0.00 | 98 | 1025.4 |
| 20260901004626 | 67 | 29 | 13.0 | 16.0 | 0.00 | 0.00 | 0.00 | 98 | 1025.4 |
| 20260901004122 | 67 | 29 | 13.0 | 16.0 | 0.00 | 0.00 | 0.00 | 98 | 1025.4 |
| 20260901003617 | 67 | 29 | 13.0 | 16.0 | 0.00 | 0.00 | 0.00 | 98 | 1025.5 |
| 20260901003116 | 67 | 29 | 13.0 | 16.0 | 0.00 | 0.00 | 0.00 | 97 | 1025.3 |
| 20260901002615 | 67 | 29 | 13.0 | 16.0 | 0.00 | 0.00 | 0.00 | 97 | 1025.3 |
| 20260901002110 | 67 | 29 | 13.0 | 16.0 | 0.00 | 0.00 | 0.00 | 97 | 1025.3 |
| 20260901001605 | 67 | 29 | 13.0 | 16.0 | 0.00 | 0.00 | 0.00 | 97 | 1025.3 |
| 20260901001100 | 67 | 29 | 13.0 | 16.0 | 0.00 | 0.00 | 0.00 | 97 | 1025.3 |
| 20260901000555 | 67 | 29 | 13.0 | 16.0 | 0.00 | 0.00 | 0.00 | 97 | 1025.3 |
| 20260901000051 | 67 | 29 | 13.0 | 16.0 | 0.00 | 0.00 | 0.00 | 97 | 1025.2 |
| 20260831235545 | 68 | 29 | 13.0 | 16.0 | 0.00 | 0.00 | 0.00 | 97 | 1025.4 |
| 20260831235041 | 68 | 29 | 13.0 | 16.0 | 0.00 | 0.00 | 0.00 | 97 | 1025.3 |
| 20260831234540 | 68 | 29 | 13.0 | 16.0 | 0.00 | 0.00 | 0.00 | 96 | 1025.5 |
| 20260831234036 | 68 | 29 | 13.0 | 16.0 | 0.00 | 0.00 | 0.00 | 96 | 1025.5 |
| 20260831233531 | 68 | 29 | 13.0 | 16.0 | 0.00 | 0.00 | 0.00 | 96 | 1025.4 |
| 20260831233026 | 68 | 29 | 13.0 | 16.0 | 0.00 | 0.00 | 0.00 | 95 | 1025.6 |
| 20260831232521 | 68 | 29 | 13.0 | 16.0 | 0.00 | 0.00 | 0.00 | 95 | 1025.6 |
| 20260831232018 | 68 | 29 | 13.0 | 16.0 | 0.00 | 0.00 | 0.00 | 95 | 1025.7 |
| 20260831231514 | 68 | 29 | 13.0 | 16.0 | 0.00 | 0.00 | 0.00 | 94 | 1025.7 |
| 20260831231009 | 68 | 29 | 13.0 | 16.0 | 0.00 | 0.00 | 0.00 | 94 | 1025.8 |
| 20260831230505 | 69 | 29 | 13.0 | 16.0 | 0.00 | 0.00 | 0.00 | 93 | 1025.8 |
| 20260831230004 | 69 | 29 | 13.0 | 16.0 | 0.00 | 0.00 | 0.00 | 92 | 1025.8 |
| 20260831225500 | 69 | 29 | 13.0 | 16.0 | 0.00 | 0.00 | 0.00 | 91 | 1025.8 |
| 20260831224954 | 69 | 29 | 13.0 | 16.0 | 0.00 | 0.00 | 0.00 | 91 | 1025.9 |
| 20260831224450 | 70 | 29 | 13.0 | 16.0 | 0.00 | 0.00 | 0.00 | 91 | 1025.8 |
| 20260831223944 | 70 | 29 | 13.0 | 16.0 | 0.00 | 0.00 | 0.00 | 91 | 1026.0 |
| 20260831223439 | 70 | 29 | 13.0 | 16.0 | 0.00 | 0.00 | 0.00 | 91 | 1026.0 |
| 20260831222936 | 70 | 29 | 13.0 | 16.0 | 0.00 | 0.00 | 0.00 | 91 | 1026.0 |
| 20260831222432 | 70 | 29 | 13.0 | 16.0 | 0.00 | 0.00 | 0.00 | 91 | 1026.0 |
| 20260831221931 | 70 | 29 | 13.0 | 16.0 | 0.00 | 0.00 | 0.00 | 91 | 1025.8 |
| 20260831221427 | 70 | 29 | 13.0 | 16.0 | 0.00 | 0.00 | 0.00 | 90 | 1025.6 |
| 20260831220922 | 70 | 29 | 13.0 | 16.0 | 0.00 | 0.00 | 0.00 | 91 | 1025.9 |
| 20260831220418 | 70 | 29 | 13.0 | 16.0 | 0.00 | 0.00 | 0.00 | 90 | 1025.6 |
| 20260831215913 | 70 | 29 | 13.0 | 16.0 | 0.00 | 0.00 | 0.00 | 89 | 1025.7 |
| 20260831215409 | 70 | 29 | 13.0 | 16.0 | 0.00 | 0.00 | 0.00 | 88 | 1025.7 |
| 20260831214905 | 70 | 29 | 13.0 | 16.0 | 0.00 | 0.00 | 0.00 | 89 | 1025.6 |
| 20260831214402 | 70 | 29 | 13.0 | 16.0 | 0.00 | 0.00 | 0.00 | 89 | 1025.7 |
| 20260831213858 | 71 | 29 | 13.0 | 16.0 | 0.00 | 0.00 | 0.00 | 88 | 1025.6 |
| 20260831213355 | 70 | 29 | 13.0 | 16.0 | 0.00 | 0.00 | 0.00 | 87 | 1025.7 |
| 20260831212854 | 70 | 29 | 13.0 | 16.0 | 0.00 | 0.00 | 0.00 | 88 | 1025.8 |
| 20260831212351 | 70 | 29 | 13.0 | 16.0 | 0.00 | 0.00 | 0.00 | 87 | 1025.7 |
| 20260831211850 | 70 | 29 | 13.0 | 16.0 | 0.00 | 0.00 | 0.00 | 88 | 1025.7 |
| 20260831211350 | 70 | 29 | 13.0 | 16.0 | 0.00 | 0.00 | 0.00 | 87 | 1025.9 |
| 20260831210850 | 71 | 29 | 13.0 | 16.0 | 0.00 | 0.00 | 0.00 | 87 | 1025.7 |
| 20260831210346 | 71 | 29 | 13.0 | 16.0 | 0.00 | 0.00 | 0.00 | 87 | 1025.6 |
| 20260831205841 | 71 | 29 | 13.0 | 16.0 | 0.00 | 0.00 | 0.00 | 85 | 1025.8 |
| 20260831205337 | 71 | 29 | 13.0 | 16.0 | 0.00 | 0.00 | 0.00 | 85 | 1025.7 |
| 20260831204832 | 71 | 29 | 13.0 | 16.0 | 0.00 | 0.00 | 0.00 | 85 | 1025.7 |
| 20260831204330 | 71 | 29 | 13.0 | 16.0 | 0.00 | 0.00 | 0.00 | 84 | 1025.6 |
| 20260831203829 | 71 | 29 | 13.0 | 16.0 | 0.00 | 0.00 | 0.00 | 82 | 1025.7 |
| 20260831203324 | 71 | 29 | 13.0 | 16.0 | 0.00 | 0.00 | 0.00 | 83 | 1025.8 |
| 20260831202822 | 71 | 29 | 13.0 | 16.0 | 0.00 | 0.00 | 0.00 | 82 | 1025.7 |
| 20260831202318 | 72 | 29 | 13.0 | 16.0 | 0.00 | 0.00 | 0.00 | 82 | 1025.7 |
| 20260831201818 | 72 | 29 | 13.0 | 16.0 | 0.00 | 0.00 | 0.00 | 81 | 1025.6 |
| 20260831201316 | 72 | 29 | 13.0 | 16.0 | 0.00 | 0.00 | 0.00 | 81 | 1025.7 |
| 20260831200812 | 72 | 29 | 13.0 | 16.0 | 0.00 | 0.00 | 0.00 | 81 | 1025.8 |
| 20260831200307 | 72 | 29 | 13.0 | 16.0 | 0.00 | 0.00 | 0.00 | 80 | 1025.8 |
| 20260831195802 | 72 | 29 | 13.0 | 16.0 | 0.00 | 0.00 | 0.00 | 81 | 1026.0 |
| 20260831195258 | 72 | 29 | 13.0 | 16.0 | 0.00 | 0.00 | 0.00 | 80 | 1026.2 |
| 20260831194748 | 72 | 29 | 13.0 | 16.0 | 0.00 | 0.00 | 0.00 | 78 | 1026.4 |
| 20260831194244 | 73 | 29 | 13.0 | 16.0 | 0.00 | 0.00 | 0.00 | 77 | 1026.3 |
| 20260831193742 | 74 | 29 | 13.0 | 16.0 | 0.00 | 0.00 | 0.00 | 76 | 1026.4 |
| 20260831193238 | 74 | 29 | 13.0 | 16.0 | 0.00 | 0.00 | 0.00 | 76 | 1026.4 |
| 20260831192733 | 74 | 29 | 13.0 | 16.0 | 0.00 | 0.00 | 0.00 | 73 | 1026.4 |
| 20260831192228 | 75 | 29 | 13.0 | 16.0 | 0.00 | 0.00 | 0.00 | 72 | 1026.5 |
| 20260831191724 | 75 | 29 | 13.0 | 16.0 | 0.00 | 0.00 | 0.00 | 72 | 1026.5 |
| 20260831191220 | 75 | 29 | 13.0 | 16.0 | 0.00 | 0.00 | 0.00 | 68 | 1026.6 |
| 20260831190715 | 78 | 29 | 13.0 | 16.0 | 0.00 | 0.00 | 0.00 | 69 | 1026.6 |
| 20260831190214 | 76 | 29 | 13.0 | 16.0 | 0.00 | 0.00 | 0.00 | 66 | 1026.8 |
| 20260831185709 | 75 | 29 | 13.0 | 16.0 | 0.00 | 0.00 | 0.00 | 71 | 1026.9 |
| 20260831185205 | 74 | 29 | 13.0 | 16.0 | 0.00 | 0.00 | 0.00 | 68 | 1026.8 |
| 20260831184704 | 74 | 29 | 13.0 | 16.0 | 0.00 | 0.00 | 0.00 | 71 | 1026.8 |
| 20260831184200 | 75 | 29 | 13.0 | 16.0 | 0.00 | 0.00 | 0.00 | 72 | 1026.6 |
| 20260831183659 | 75 | 29 | 13.0 | 16.0 | 0.00 | 0.00 | 0.00 | 71 | 1026.6 |
| 20260831183159 | 75 | 29 | 13.0 | 16.0 | 0.00 | 0.00 | 0.00 | 72 | 1026.6 |
| 20260831182658 | 75 | 29 | 13.0 | 16.0 | 0.00 | 0.00 | 0.00 | 71 | 1026.6 |
| 20260831182154 | 74 | 29 | 13.0 | 16.0 | 0.00 | 0.00 | 0.00 | 69 | 1026.8 |
| 20260831181649 | 74 | 29 | 13.0 | 16.0 | 0.00 | 0.00 | 0.00 | 73 | 1026.8 |
| 20260831181143 | 74 | 29 | 13.0 | 16.0 | 0.00 | 0.00 | 0.00 | 70 | 1027.0 |
| 20260831180638 | 74 | 29 | 13.0 | 16.0 | 0.00 | 0.00 | 0.00 | 75 | 1027.0 |
| 20260831180133 | 75 | 29 | 13.0 | 16.0 | 0.00 | 0.00 | 0.00 | 75 | 1027.2 |
| 20260831175627 | 75 | 29 | 13.0 | 16.0 | 0.00 | 0.00 | 0.00 | 70 | 1027.2 |
| 20260831175125 | 75 | 29 | 13.0 | 16.0 | 0.00 | 0.00 | 0.00 | 73 | 1027.2 |
| 20260831174620 | 75 | 29 | 13.0 | 16.0 | 0.00 | 0.00 | 0.00 | 69 | 1027.2 |
| 20260831174119 | 75 | 29 | 13.0 | 16.0 | 0.00 | 0.00 | 0.00 | 69 | 1027.3 |
| 20260831173618 | 76 | 29 | 13.0 | 16.0 | 0.00 | 0.00 | 0.00 | 68 | 1027.2 |
| 20260831173115 | 76 | 29 | 13.0 | 16.0 | 0.00 | 0.00 | 0.00 | 68 | 1027.2 |
| 20260831172614 | 77 | 29 | 13.0 | 16.0 | 0.00 | 0.00 | 0.00 | 66 | 1027.2 |
| 20260831172109 | 76 | 29 | 13.0 | 16.0 | 0.00 | 0.00 | 0.00 | 70 | 1027.3 |
| 20260831171604 | 76 | 29 | 13.0 | 16.0 | 0.00 | 0.00 | 0.00 | 68 | 1027.1 |
| 20260831171102 | 77 | 29 | 13.0 | 16.0 | 0.00 | 0.00 | 0.00 | 68 | 1026.9 |
| 20260831170557 | 77 | 29 | 13.0 | 16.0 | 0.00 | 0.00 | 0.00 | 68 | 1027.2 |
| 20260831170055 | 76 | 29 | 13.0 | 16.0 | 0.00 | 0.00 | 0.00 | 67 | 1027.0 |
| 20260831165554 | 77 | 29 | 13.0 | 16.0 | 0.00 | 0.00 | 0.00 | 69 | 1027.1 |
| 20260831165051 | 76 | 29 | 13.0 | 16.0 | 0.00 | 0.00 | 0.00 | 67 | 1027.1 |
| 20260831164547 | 78 | 29 | 13.0 | 16.0 | 0.00 | 0.00 | 0.00 | 65 | 1027.0 |
| 20260831164043 | 78 | 29 | 13.0 | 16.0 | 0.00 | 0.00 | 0.00 | 66 | 1027.2 |
| 20260831163543 | 78 | 29 | 13.0 | 16.0 | 0.00 | 0.00 | 0.00 | 63 | 1027.4 |
| 20260831163038 | 78 | 29 | 13.0 | 16.0 | 0.00 | 0.00 | 0.00 | 64 | 1027.3 |
| 20260831162537 | 77 | 29 | 13.0 | 16.0 | 0.00 | 0.00 | 0.00 | 65 | 1027.4 |
| 20260831162035 | 77 | 29 | 13.0 | 16.0 | 0.00 | 0.00 | 0.00 | 65 | 1027.5 |
| 20260831161532 | 77 | 29 | 13.0 | 16.0 | 0.00 | 0.00 | 0.00 | 71 | 1027.4 |
| 20260831161028 | 76 | 29 | 13.0 | 16.0 | 0.00 | 0.00 | 0.00 | 69 | 1027.6 |
| 20260831160527 | 76 | 29 | 13.0 | 16.0 | 0.00 | 0.00 | 0.00 | 72 | 1027.5 |
| 20260831160023 | 76 | 29 | 13.0 | 16.0 | 0.00 | 0.00 | 0.00 | 69 | 1027.5 |
| 20260831155517 | 77 | 29 | 13.0 | 16.0 | 0.00 | 0.00 | 0.00 | 69 | 1027.5 |
| 20260831155012 | 76 | 29 | 13.0 | 16.0 | 0.00 | 0.00 | 0.00 | 69 | 1027.4 |
| 20260831154510 | 75 | 29 | 13.0 | 16.0 | 0.00 | 0.00 | 0.00 | 71 | 1027.5 |
| 20260831154009 | 75 | 29 | 13.0 | 16.0 | 0.00 | 0.00 | 0.00 | 68 | 1027.5 |
| 20260831153508 | 75 | 29 | 13.0 | 16.0 | 0.00 | 0.00 | 0.00 | 78 | 1027.5 |
| 20260831153006 | 74 | 29 | 13.0 | 16.0 | 0.00 | 0.00 | 0.00 | 75 | 1027.4 |
| 20260831152500 | 73 | 29 | 13.0 | 16.0 | 0.00 | 0.00 | 0.00 | 79 | 1027.7 |
| 20260831151955 | 74 | 29 | 13.0 | 16.0 | 0.00 | 0.00 | 0.00 | 74 | 1027.7 |
| 20260831151455 | 73 | 29 | 13.0 | 16.0 | 0.00 | 0.00 | 0.00 | 76 | 1027.6 |
| 20260831150950 | 74 | 29 | 13.0 | 16.0 | 0.00 | 0.00 | 0.00 | 77 | 1027.7 |
| 20260831150445 | 74 | 29 | 13.0 | 16.0 | 0.00 | 0.00 | 0.00 | 80 | 1027.6 |
| 20260831145945 | 73 | 29 | 13.0 | 16.0 | 0.00 | 0.00 | 0.00 | 77 | 1027.7 |
| 20260831145441 | 73 | 29 | 13.0 | 16.0 | 0.00 | 0.00 | 0.00 | 72 | 1027.6 |
| 20260831144937 | 74 | 29 | 13.0 | 16.0 | 0.00 | 0.00 | 0.00 | 74 | 1027.5 |
| 20260831144432 | 73 | 29 | 13.0 | 16.0 | 0.00 | 0.00 | 0.00 | 79 | 1027.4 |
| 20260831143927 | 72 | 29 | 13.0 | 16.0 | 0.00 | 0.00 | 0.00 | 76 | 1027.7 |
| 20260831143422 | 72 | 29 | 13.0 | 16.0 | 0.00 | 0.00 | 0.00 | 80 | 1027.6 |
| 20260831142918 | 72 | 29 | 13.0 | 16.0 | 0.00 | 0.00 | 0.00 | 81 | 1027.6 |
| 20260831142414 | 71 | 29 | 13.0 | 16.0 | 0.00 | 0.00 | 0.00 | 79 | 1027.6 |
| 20260831141908 | 71 | 29 | 13.0 | 16.0 | 0.00 | 0.00 | 0.00 | 80 | 1027.6 |
| 20260831141402 | 71 | 29 | 13.0 | 16.0 | 0.00 | 0.00 | 0.00 | 86 | 1027.5 |
| 20260831140857 | 71 | 29 | 13.0 | 16.0 | 0.00 | 0.00 | 0.00 | 84 | 1027.6 |
| 20260831140351 | 70 | 29 | 13.0 | 16.0 | 0.00 | 0.00 | 0.00 | 81 | 1027.5 |
| 20260831135850 | 70 | 29 | 13.0 | 16.0 | 0.00 | 0.00 | 0.00 | 86 | 1027.3 |
| 20260831135345 | 69 | 29 | 13.0 | 16.0 | 0.00 | 0.00 | 0.00 | 85 | 1027.4 |
| 20260831134840 | 69 | 29 | 13.0 | 16.0 | 0.00 | 0.00 | 0.00 | 88 | 1027.5 |
| 20260831134337 | 69 | 29 | 13.0 | 16.0 | 0.00 | 0.00 | 0.00 | 90 | 1027.4 |
| 20260831133836 | 68 | 29 | 13.0 | 16.0 | 0.00 | 0.00 | 0.00 | 89 | 1027.5 |
| 20260831133336 | 68 | 29 | 13.0 | 16.0 | 0.00 | 0.00 | 0.00 | 92 | 1027.7 |
| 20260831132831 | 67 | 29 | 13.0 | 16.0 | 0.00 | 0.00 | 0.00 | 93 | 1027.6 |
| 20260831132326 | 67 | 29 | 13.0 | 16.0 | 0.00 | 0.00 | 0.00 | 92 | 1027.5 |
| 20260831131826 | 67 | 29 | 13.0 | 16.0 | 0.00 | 0.00 | 0.00 | 94 | 1027.5 |
| 20260831131322 | 67 | 29 | 13.0 | 16.0 | 0.00 | 0.00 | 0.00 | 94 | 1027.5 |
| 20260831130817 | 67 | 29 | 13.0 | 16.0 | 0.00 | 0.00 | 0.00 | 95 | 1027.4 |
| 20260831130313 | 66 | 29 | 13.0 | 16.0 | 0.00 | 0.00 | 0.00 | 96 | 1027.4 |
| 20260831125812 | 66 | 29 | 13.0 | 16.0 | 0.00 | 0.00 | 0.00 | 96 | 1027.3 |
| 20260831125307 | 66 | 29 | 13.0 | 16.0 | 0.00 | 0.00 | 0.00 | 97 | 1027.3 |
| 20260831124807 | 65 | 29 | 13.0 | 16.0 | 0.00 | 0.00 | 0.00 | 97 | 1027.1 |
| 20260831124304 | 64 | 29 | 13.0 | 16.0 | 0.00 | 0.00 | 0.00 | 98 | 1027.4 |
| 20260831123803 | 64 | 29 | 13.0 | 16.0 | 0.00 | 0.00 | 0.00 | 99 | 1027.6 |
| 20260831123302 | 64 | 29 | 13.0 | 16.0 | 0.00 | 0.00 | 0.00 | 99 | 1027.5 |
| 20260831122757 | 64 | 29 | 13.0 | 16.0 | 0.00 | 0.00 | 0.00 | 99 | 1027.4 |
| 20260831122253 | 64 | 29 | 13.0 | 16.0 | 0.00 | 0.00 | 0.00 | 99 | 1027.5 |
| 20260831121752 | 64 | 29 | 13.0 | 16.0 | 0.00 | 0.00 | 0.00 | 99 | 1027.7 |
| 20260831121249 | 64 | 29 | 13.0 | 16.0 | 0.00 | 0.00 | 0.00 | 99 | 1027.6 |
| 20260831120744 | 64 | 29 | 13.0 | 16.0 | 0.00 | 0.00 | 0.00 | 99 | 1027.4 |
| 20260831120238 | 63 | 29 | 13.0 | 16.0 | 0.00 | 0.00 | 0.00 | 99 | 1027.4 |
| 20260831115734 | 63 | 29 | 13.0 | 16.0 | 0.00 | 0.00 | 0.00 | 99 | 1027.6 |
| 20260831115230 | 63 | 29 | 13.0 | 16.0 | 0.00 | 0.00 | 0.00 | 99 | 1027.4 |
| 20260831114729 | 63 | 29 | 13.0 | 16.0 | 0.00 | 0.00 | 0.00 | 99 | 1027.1 |
| 20260831114229 | 63 | 29 | 13.0 | 16.0 | 0.00 | 0.00 | 0.00 | 99 | 1027.1 |
| 20260831113724 | 63 | 29 | 13.0 | 16.0 | 0.00 | 0.00 | 0.00 | 99 | 1026.9 |
| 20260831113219 | 63 | 29 | 13.0 | 16.0 | 0.00 | 0.00 | 0.00 | 99 | 1027.3 |
| 20260831112718 | 62 | 29 | 13.0 | 16.0 | 0.00 | 0.00 | 0.00 | 99 | 1027.2 |
| 20260831112213 | 62 | 29 | 13.0 | 16.0 | 0.00 | 0.00 | 0.00 | 99 | 1027.2 |
| 20260831111708 | 62 | 29 | 13.0 | 16.0 | 0.00 | 0.00 | 0.00 | 99 | 1027.0 |
| 20260831111205 | 62 | 29 | 13.0 | 16.0 | 0.00 | 0.00 | 0.00 | 99 | 1027.2 |
| 20260831110701 | 62 | 29 | 13.0 | 16.0 | 0.00 | 0.00 | 0.00 | 99 | 1027.1 |
| 20260831110155 | 62 | 29 | 13.0 | 16.0 | 0.00 | 0.00 | 0.00 | 99 | 1026.9 |
| 20260831105654 | 62 | 29 | 13.0 | 16.0 | 0.00 | 0.00 | 0.00 | 99 | 1026.8 |
| 20260831105150 | 62 | 29 | 13.0 | 16.0 | 0.00 | 0.00 | 0.00 | 99 | 1026.7 |
| 20260831104645 | 62 | 29 | 13.0 | 16.0 | 0.00 | 0.00 | 0.00 | 99 | 1026.5 |
| 20260831104141 | 62 | 29 | 13.0 | 16.0 | 0.00 | 0.00 | 0.00 | 99 | 1026.6 |
| 20260831103636 | 62 | 29 | 13.0 | 16.0 | 0.00 | 0.00 | 0.00 | 99 | 1026.5 |
| 20260831103126 | 62 | 29 | 13.0 | 16.0 | 0.00 | 0.00 | 0.00 | 99 | 1026.5 |
| 20260831102626 | 62 | 29 | 13.0 | 16.0 | 0.00 | 0.00 | 0.00 | 99 | 1026.4 |
| 20260831102121 | 62 | 29 | 13.0 | 16.0 | 0.00 | 0.00 | 0.00 | 99 | 1026.4 |
| 20260831101621 | 62 | 29 | 13.0 | 16.0 | 0.00 | 0.00 | 0.00 | 99 | 1026.2 |
| 20260831101117 | 62 | 29 | 13.0 | 16.0 | 0.00 | 0.00 | 0.00 | 99 | 1026.2 |
| 20260831100613 | 62 | 29 | 13.0 | 16.0 | 0.00 | 0.00 | 0.00 | 99 | 1026.0 |
| 20260831100104 | 62 | 29 | 13.0 | 16.0 | 0.00 | 0.00 | 0.00 | 99 | 1026.0 |
| 20260831095602 | 62 | 29 | 13.0 | 16.0 | 0.00 | 0.00 | 0.00 | 99 | 1025.9 |